Regional Weather Roundup
Issued by NWS

Home | Current Version | Previous Version | Graphics & Text | Print | Product List | Glossary On
Versions: 1 2 3 4 5 6 7 8 9 10 11 12 13 14 15 16 17 18 19 20 21 22 23 24 25 26 27 28 29 30 31 32 33 34 35 36 37 38 39 40 41 42 43 44 45 46 47 48 49 50
753
ASUS45 KSLC 200710
RWRUT

UTAH REGIONAL WEATHER ROUNDUP
NATIONAL WEATHER SERVICE SALT LAKE CITY UT
1200 AM MST SAT JAN 20 2018

UTZ001>011-023>025-200800-

NORTHERN UTAH

CITY           SKY/WX    TMP DP  RH WIND       PRES   REMARKS
BRIGHAM CITY   CLOUDY    32  30  92 W3        29.96F
HILL AFB       CLOUDY    28  28 100 NW8       29.93F BLWGSNOWWCI  20
LOGAN          CLOUDY    34  30  85 S8        29.94F WCI  27
OGDEN          LGT SNOW  30  29  96 NW5       29.94S FOG     WCI  25
SALT LAKE CITY LGT SNOW  33  31  92 NW13      29.94F VSB 1   WCI  24
TOOELE VALLEY  LGT SNOW  32  32 100 N7        29.96F WCI  26
WENDOVER       LGT SNOW  30  28  92 CALM      29.97F FOG
HEBER CITY     LGT SNOW  32  27  80 E3G16     29.86F
WEST JORDAN    CLOUDY    29  29 100 NW14      29.94F WCI  19

$$

UTZ011>015-024>027-200800-

CENTRAL/NORTHEAST UTAH

CITY           SKY/WX    TMP DP  RH WIND       PRES   REMARKS
PROVO AIRPORT  MIX PCPN  32  30  92 NW20      29.92F WCI  20
MOAB/CANYONLAN CLOUDY    34  27  75 CALM      29.80F
DELTA          CLOUDY    32  32 100 N7        29.90S WCI  26
PRICE          MOCLDY    31  23  72 CALM      29.81F
RICHFIELD      MOCLDY    36  30  80 N12G21    29.84  WCI  27
ROOSEVELT      PTCLDY    23  19  86 W6        29.83F WCI  16
VERNAL         PTCLDY    29  19  66 W6        29.81F WCI  23

$$

UTZ013>016-019>022-027-200800-

SOUTHERN UTAH

CITY           SKY/WX    TMP DP  RH WIND       PRES   REMARKS
BRYCE CANYON   CLOUDY    37  27  67 S3        29.89F
CEDAR CITY     CLOUDY    44  29  55 SW8       29.81F
MILFORD        CLOUDY    35  28  75 N21G29    29.86R WCI  24
ST GEORGE      CLOUDY    54  33  45 SE10      29.80F
HANKSVILLE     MOCLDY    34  21  60 CALM      29.84S
KANAB          CLEAR     46  27  46 SW3       29.89
BLANDING         N/A     37  18  46 NE5       29.98S WCI  33

$$

REGIONAL REPORTS     COLORADO/ARIZONA

CITY           SKY/WX    TMP DP  RH WIND       PRES   REMARKS
CRAIG, CO      PTCLDY    29  22  75 E3        29.82F
GRAND JUNCTION MOCLDY    28  20  71 CALM      29.83F
RIFLE, CO      MOCLDY    29  23  78 SE5       29.85F WCI  24
MONTROSE, CO   CLOUDY    48  20  32 VRB7      29.87F
CORTEZ, CO     PTCLDY    26  19  74 NE5       29.94F WCI  20
COLORADO CITY  CLOUDY    45  32  61 E5        29.89F
PAGE, AZ       PTCLDY    53  25  33 VRB6      29.83F
GRAND CANYON   PTCLDY    35  21  56 CALM      29.94F
KINGMAN, AZ    CLOUDY    57  27  31 S16G24    29.84F
FLAGSTAFF, AZ  CLEAR     27  16  63 CALM      29.96F

$$

REGIONAL REPORTS    NEVADA/IDAHO/WYOMING

CITY           SKY/WX    TMP DP  RH WIND       PRES   REMARKS
LAS VEGAS, NV  CLOUDY    58  39  49 SW7       29.75F
ELY, NY        SNOW      25  23  92 N15       29.90S VSB 1/2 WCI  13
ELKO, NV       CLOUDY    28  25  88 E3        29.94S
POCATELLO, ID  CLOUDY    32  24  72 SW15      29.94S WCI  22
BURLEY, ID     CLOUDY    33  24  69 S14       29.95R WCI  23
FORT BRIDGER,  LGT SNOW  25  25 100 NW9       29.91  WCI  15
EVANSTON, WY   CLOUDY    23  22  96 NE8       29.87F FOG     WCI  14
ROCK SPRINGS,  CLOUDY    27  22  81 W12       29.86S WCI  17

$$




USA.gov is the U.S. government's official web portal to all federal, state and local government web resources and services.